EW8409 Weather Reports


Display with metric or nautical units.
time (UTC)temp
F
wind
direction
speed
MPH
gust
MPH
rain 1hr
in
rain 24hr
in
rain mn
in
humidity
%
barometer
mb
20260906113050 60 329 0.0 0.0 0.00 0.00 0.00 98 1016.7
20260906111546 59 329 0.0 0.0 0.00 0.00 0.00 98 1016.7
20260906110044 59 329 0.0 0.0 0.00 0.00 0.00 98 1016.5
20260906104543 59 329 0.0 0.0 0.00 0.00 0.00 98 1016.4
20260906103041 59 329 0.0 0.0 0.00 0.00 0.00 98 1016.2
20260906101541 59 329 0.0 0.0 0.00 0.00 0.00 98 1016.1
20260906100038 59 329 0.0 0.0 0.00 0.00 0.00 97 1015.9
20260906094537 60 329 0.0 0.0 0.00 0.00 0.00 97 1015.8
20260906093035 60 329 0.0 0.0 0.00 0.00 0.00 97 1015.7
20260906091534 60 329 0.0 0.0 0.00 0.00 0.00 97 1015.5
20260906090030 60 329 0.0 0.0 0.00 0.00 0.00 97 1015.3
20260906084528 60 329 0.0 0.0 0.00 0.00 0.00 97 1015.0
20260906083029 61 329 0.0 0.0 0.00 0.00 0.00 97 1014.9
20260906081534 61 329 0.0 0.0 0.00 0.00 0.00 97 1014.9
20260906080024 61 329 0.0 0.0 0.00 0.00 0.00 97 1014.9
20260906074524 61 329 0.0 0.0 0.00 0.00 0.00 97 1014.9
20260906073021 61 329 0.0 0.0 0.00 0.00 0.00 96 1014.7
20260906071520 62 329 0.0 0.0 0.00 0.00 0.00 97 1014.7
20260906070020 62 329 0.0 0.0 0.00 0.00 0.00 97 1014.7
20260906064519 62 329 0.0 0.0 0.00 0.00 0.00 97 1014.8
20260906063020 62 329 0.0 0.0 0.00 0.00 0.00 97 1014.9
20260906061518 62 329 0.0 0.0 0.00 0.00 0.00 96 1014.8
20260906060016 62 329 0.0 0.0 0.00 0.00 0.00 96 1014.8
20260906054516 62 329 0.0 0.0 0.00 0.00 0.00 96 1014.8
20260906053015 62 329 0.0 0.0 0.00 0.00 0.00 96 1014.9
20260906051512 62 329 0.0 0.0 0.00 0.00 0.00 96 1014.9
20260906050035 62 329 0.0 0.0 0.00 0.00 0.00 96 1014.9
20260906044509 62 329 0.0 0.0 0.00 0.00 0.00 96 1014.8
20260906043009 62 329 0.0 0.0 0.00 0.00 0.00 95 1014.7
20260906041507 62 329 0.0 0.0 0.00 0.00 0.00 95 1014.7
20260906040006 63 329 0.0 0.0 0.00 0.00 0.00 95 1014.6
20260906034503 63 329 0.0 0.0 0.00 0.00 0.00 94 1014.5
20260906033002 63 329 0.0 0.0 0.00 0.00 0.00 95 1014.5
20260906031502 63 329 0.0 0.0 0.00 0.00 0.00 94 1014.5
20260906030002 63 329 0.0 0.0 0.00 0.00 0.00 93 1014.4
20260906024603 63 329 0.0 0.0 0.00 0.00 0.00 93 1014.3
20260906023119 63 329 0.0 0.0 0.00 0.00 0.00 93 1014.3
20260906021611 63 329 0.0 0.0 0.00 0.00 0.00 92 1014.2
20260906014606 64 329 0.0 0.0 0.00 0.00 0.00 91 1014.2
20260906013056 65 329 0.0 0.0 0.00 0.00 0.00 90 1014.0
20260906011601 65 329 0.0 0.0 0.00 0.00 0.00 88 1014.1
20260906010056 66 329 0.0 0.0 0.00 0.00 0.00 88 1014.1
20260906004557 66 329 0.0 0.0 0.00 0.00 0.00 87 1013.9
20260906003104 66 329 0.0 0.0 0.00 0.00 0.00 86 1013.8
20260906001553 67 329 0.0 0.0 0.00 0.00 0.00 85 1013.8
20260906000053 67 329 0.0 0.0 0.00 0.00 0.00 85 1013.8
20260905234601 67 329 0.0 0.0 0.00 0.00 0.00 83 1013.8
20260905233052 68 329 0.0 0.0 0.00 0.00 0.00 82 1013.9
20260905231552 68 347 0.0 0.0 0.00 0.00 0.00 82 1014.0
20260905230053 68 349 0.0 0.0 0.00 0.00 0.00 81 1013.9
20260905224550 69 349 0.0 0.0 0.00 0.00 0.00 80 1014.0
20260905223051 69 9 0.0 0.0 0.00 0.00 0.00 79 1014.0
20260905221547 70 334 0.0 0.0 0.00 0.00 0.00 79 1013.8
20260905220049 70 8 0.0 0.0 0.00 0.00 0.00 79 1013.7
20260905214557 70 288 0.0 0.0 0.00 0.00 0.00 77 1013.6
20260905213047 71 18 0.0 0.0 0.00 0.00 0.00 77 1013.5
20260905211544 71 1 0.0 0.0 0.00 0.00 0.00 76 1013.3
20260905210047 71 54 0.0 0.0 0.00 0.00 0.00 75 1013.3
20260905204543 71 8 0.0 0.0 0.00 0.00 0.00 75 1013.2
20260905203044 71 316 0.0 0.0 0.00 0.00 0.00 73 1013.3
20260905201543 72 256 0.0 0.0 0.00 0.00 0.00 71 1013.3
20260905200047 72 313 0.0 0.0 0.00 0.00 0.00 68 1013.2
20260905194541 73 74 0.0 0.0 0.00 0.00 0.00 68 1013.4
20260905193042 74 32 0.0 0.0 0.00 0.00 0.00 67 1013.4
20260905191540 73 22 0.0 0.0 0.00 0.00 0.00 68 1013.4
20260905190038 73 351 0.0 1.0 0.00 0.00 0.00 69 1013.6
20260905184541 73 323 0.0 1.0 0.00 0.00 0.00 68 1013.5
20260905183038 73 66 0.0 0.0 0.00 0.00 0.00 68 1013.4
20260905181537 73 304 0.0 0.0 0.00 0.00 0.00 68 1013.4
20260905180035 73 33 0.0 0.0 0.00 0.00 0.00 67 1013.4
20260905174541 73 360 0.0 1.0 0.00 0.00 0.00 67 1013.5
20260905173033 73 83 0.0 1.0 0.00 0.00 0.00 66 1013.4
20260905171535 73 29 0.0 0.0 0.00 0.00 0.00 68 1013.3
20260905170031 72 41 0.0 1.0 0.00 0.00 0.00 69 1013.2
20260905164527 72 86 0.0 1.0 0.00 0.00 0.00 72 1013.3
20260905163026 71 23 0.0 0.0 0.00 0.00 0.00 70 1013.3
20260905161525 71 283 0.0 0.0 0.00 0.00 0.00 73 1013.4
20260905160040 70 71 0.0 0.0 0.00 0.00 0.00 76 1013.4
20260905154521 70 59 0.0 0.0 0.00 0.00 0.00 79 1013.6
20260905153019 70 31 0.0 0.0 0.00 0.00 0.00 79 1013.7
20260905151519 69 333 0.0 0.0 0.00 0.00 0.00 78 1013.5
20260905150025 69 343 0.0 0.0 0.00 0.00 0.00 81 1013.5
20260905144537 69 292 0.0 0.0 0.00 0.00 0.00 81 1013.5
20260905143022 69 36 0.0 0.0 0.00 0.00 0.00 82 1013.3
20260905141525 68 32 0.0 0.0 0.00 0.00 0.00 80 1013.5
20260905140015 69 32 0.0 0.0 0.00 0.00 0.00 82 1013.5
20260905134517 69 289 0.0 0.0 0.00 0.00 0.00 82 1013.5
20260905133010 68 64 0.0 1.0 0.00 0.00 0.00 83 1013.5
20260905131508 68 269 0.0 0.0 0.00 0.00 0.00 85 1013.4
20260905130007 67 358 0.0 1.0 0.00 0.00 0.00 88 1013.6
20260905124504 66 358 0.0 0.0 0.00 0.00 0.00 93 1013.7
20260905123002 64 333 0.0 0.0 0.00 0.00 0.00 97 1013.6
20260905121501 63 127 0.0 0.0 0.00 0.00 0.00 98 1013.5
20260905120100 61 47 0.0 0.0 0.00 0.00 0.00 98 1013.3
20260905114628 61 47 0.0 0.0 0.00 0.00 0.00 98 1013.3